Location: Balaclava NSW 2575, Australia
(34.4510°S, 150.4953°E)
Time: 23:13:36
(UTC+10:00)

XW-2C - Pass Details

Date: 05 August 2021
Orbit: 505 x 524 km, 97.5° (Epoch: 26 September)

Event Time Altitude Azimuth Distance (km) Brightness Sun altitude
Rises 05:16:54 0° 9° (N) 2,649 ? -19.1°
Reaches altitude 10° 05:18:59 10° 8° (N) 1,768 ? -18.6°
Maximum altitude 05:22:48 76° 282° (WNW) 552 ? -17.9°
Drops below altitude 10° 05:26:41 10° 195° (SSW) 1,792 ? -17.1°
Enters shadow 05:26:42 10° 195° (SSW) 1,803 ? -17.1°
